This demonstration page uses our WeatherBlox Daily Observations layout. Learn more.

Left ArrowRight Arrow

39.92423, -83.80882

Hourly Observations for January 12, 2022

Temp ( °F °C ) Dew Point ( °F °C ) Humidity (%) Winds ( mph kmh ) Pressure ( in mb ) Visibility ( mi km ) Precip ( " mm )
12:56 am 00:56 Clear 30 -1.1 17 -8.3 58 58 SW 20 31 30.20 1023 10 16 0.00 0.00
1:56 am 01:56 Clear 31 -0.6 18 -7.8 59 59 SSW 20 31 30.16 1021 10 16 0.00 0.00
2:56 am 02:56 Clear 32 0 19 -7.2 59 59 SW 20 31 30.15 1021 10 16 0.00 0.00
3:56 am 03:56 Clear 32 0 19 -7.2 59 59 SW 21 33 30.13 1020 10 16 0.00 0.00
4:56 am 04:56 Clear 33 0.6 20 -6.7 58 58 SW 17 28 30.12 1020 10 16 0.00 0.00
5:56 am 05:56 Clear 33 0.6 20 -6.7 58 58 SW 15 24 30.13 1020 10 16 0.00 0.00
6:56 am 06:56 Clear 33 0.6 21 -6.1 61 61 SW 12 19 30.14 1021 10 16 0.00 0.00
7:56 am 07:56 Sunny 32 0 22 -5.6 66 66 SW 12 19 30.14 1021 10 16 0.00 0.00
8:56 am 08:56 Sunny 35 1.7 23 -5 61 61 SW 14 22 30.15 1021 10 16 0.00 0.00
9:56 am 09:56 Sunny 37 2.8 23 -5 57 57 SW 13 20 30.15 1021 10 16 0.00 0.00
10:56 am 10:56 Sunny 40 4.4 25 -3.9 55 55 WSW 18 30 30.14 1021 10 16 0.00 0.00
11:56 am 11:56 Sunny 40 4.4 26 -3.3 58 58 WSW 15 24 30.13 1020 10 16 0.00 0.00
12:56 pm 12:56 Sunny 41 5 26 -3.3 55 55 WSW 12 19 30.09 1019 10 16 0.00 0.00
1:56 pm 13:56 Sunny 42 5.6 27 -2.8 55 55 WSW 13 20 30.07 1018 10 16 0.00 0.00
2:56 pm 14:56 Sunny 42 5.6 28 -2.2 58 58 WSW 12 19 30.06 1018 10 16 0.00 0.00
3:56 pm 15:56 Cloudy 41 5 28 -2.2 60 60 SW 10 17 30.06 1018 10 16 0.00 0.00
4:56 pm 16:56 Mostly Cloudy 41 5 28 -2.2 60 60 SW 6 9 30.06 1018 10 16 0.00 0.00
5:56 pm 17:56 Cloudy 38 3.3 28 -2.2 68 68 SSW 3 6 30.06 1018 10 16 0.00 0.00
6:56 pm 18:56 Mostly Cloudy 37 2.8 27 -2.8 67 67 Calm 30.06 1018 10 16 0.00 0.00
7:56 pm 19:56 Mostly Cloudy 36 2.2 28 -2.2 73 73 SW 6 9 30.07 1018 10 16 0.00 0.00
8:56 pm 20:56 Mostly Clear 36 2.2 28 -2.2 73 73 SW 6 9 30.06 1018 10 16 0.00 0.00
9:56 pm 21:56 Mostly Cloudy 37 2.8 29 -1.7 73 73 S 5 7 30.06 1018 10 16 0.00 0.00
10:56 pm 22:56 Partly Cloudy 38 3.3 28 -2.2 68 68 SSW 9 15 30.04 1017 10 16 0.00 0.00
11:56 pm 23:56 Partly Cloudy 36 2.2 28 -2.2 73 73 SSW 7 11 30.03 1017 10 16 0.00 0.00

Powered by AerisWeather